Home   Weather   Querétaro   Past weeks

Flag for Mexico Past Weather in Querétaro, Querétaro, Mexico — Yesterday and Last 2 Weeks

Now
59 °F

Passing clouds.


Feels Like: 58 °F
Forecast: 40 / 74 °F
Wind: 7 mph from Northwest

Location: Queretaro - Qro.

Current Time: Dec 5, 2016 at 9:12:03 pm

Latest Report: Dec 5, 2016 at 7:45 pm


Visibility: 7 mi

Pressure: 30.19 "Hg (24.34 "Hg at 1817m altitude)

Humidity: 39%

Dew Point: 34 °F

Location of QuerétaroLocation

Past Weather in Querétaro — Graph

°F

Querétaro Temperature Yesterday

Maximum temperature yesterday: 73 °F (at 11:45 am)
Minimum temperature yesterday: 52 °F (at 6:45 am)
Average temperature yesterday: 63 °F

High & Low Weather Summary for the Past Weeks

 TemperatureHumidityPressure
High77 °F (Nov 29, 2:45 pm)100% (Nov 21, 2:45 am)30.50 "Hg (Nov 21, 2:45 am)
Low34 °F (Nov 25, 5:50 am)19% (Dec 5, 12:45 pm)30.07 "Hg (Nov 29, 3:45 pm)
Average58 °F67%30.27 "Hg
* Reported Nov 20 7:45 pm — Dec 5 7:45 pm, Querétaro, Weather by CustomWeather, © 2016

Note: Actual official high and low records may vary slightly from our data, if they occured in-between our weather recording intervals... More about our weather records

Advertising

Querétaro Weather History for the Previous 24 Hours

Scroll right to see more
 ConditionsComfort  
Time TempWeatherWind HumidityBarometerVisibility
7:45 pm
Mon, Dec 5
59 °FPassing clouds.7 mph39%30.19 "Hg7 mi
6:45 pm63 °FPassing clouds.7 mph39%30.16 "Hg7 mi
4:45 pm72 °FBroken clouds.17 mph29%30.11 "Hg7 mi
3:45 pm73 °FBroken clouds.15 mph27%30.10 "Hg7 mi
2:45 pm73 °FScattered clouds.23 mph23%30.10 "Hg10 mi
1:45 pm73 °FScattered clouds.22 mph25%30.12 "Hg14 mi
12:45 pm75 °FScattered clouds.17 mph19%30.14 "Hg14 mi
11:45 am72 °FScattered clouds.15 mph27%30.17 "Hg14 mi
10:45 am68 °FScattered clouds.9 mph43%30.19 "Hg14 mi
9:45 am64 °FScattered clouds.15 mph52%30.19 "Hg14 mi
8:45 am61 °FPassing clouds.14 mph63%30.18 "Hg14 mi
7:45 am55 °FScattered clouds.10 mph77%30.16 "Hg14 mi
6:45 am46 °FPassing clouds.No wind93%30.12 "Hg7 mi
5:45 am46 °FPassing clouds.5 mph87%30.12 "Hg7 mi
4:45 am50 °FPassing clouds.No wind88%30.12 "Hg7 mi
3:45 am54 °FPassing clouds.9 mph77%30.13 "Hg7 mi
2:45 am50 °FPassing clouds.No wind88%30.14 "Hg7 mi
1:45 am52 °FPassing clouds.No wind82%30.15 "Hg7 mi
12:45 am55 °FPassing clouds.No wind72%30.16 "Hg7 mi
11:45 pm
Sun, Dec 4
55 °FPassing clouds.5 mph72%30.18 "Hg7 mi
10:45 pm57 °FPassing clouds.7 mph67%30.19 "Hg7 mi
9:45 pm59 °FPassing clouds.5 mph68%30.19 "Hg7 mi
Weather by CustomWeather, © 2016

See weather overviewHow to use our weather pages